214P/LINEAR (2002)

Japanese version
Home page
Updated on February 15, 2009

---------------------------------------------------------------------

* Profile

Designation 214P/2002 CW134
Discovery Date February 7, 2002
Magnitude 20.1 mag
Discoverer Lincoln Laboratory Near-Earth Asteroid Research project

* Orbital Elements

Epoch 2002 Feb. 15.0 TT = JDT 2452320.5
T 2002 Feb. 28.94268 TT                                 MPC
q   1.8395125            (2000.0)            P               Q
n   0.14415013     Peri.  190.11037     -0.99837522     -0.02045765
a   3.6024063      Node   348.31635     +0.04906432     -0.78324640
e   0.4893656      Incl.   15.22563     -0.02897614     -0.62137473
P   6.84

* Finding Charts

* Magnitudes Graph

        m1 = 15.5 + 5 log d + 10.0 log r

---------------------------------------------------------------------

The orbital elements are calculated by Dr. Brian G. Marsden and printed on M.P.E.C. 2009-C04.
The charts are made with StellaNavigator Ver.2.0 for Windows (AstroArts / ASCII).
The magnitudes graphs are made with Comet for Windows.

---------------------------------------------------------------------

Copyright(C) Seiichi Yoshida (comet@aerith.net). All rights reserved.